CW8593 Weather Reports


Display with metric or nautical units.
time (UTC)temp
F
wind
direction
speed
MPH
gust
MPH
rain 1hr
in
rain 24hr
in
rain mn
in
humidity
%
barometer
mb
20161203173729 55 10 3.0 5.0 0.00 0.00 0.00 78 1015.2
20161203172229 55 14 4.0 6.0 0.00 0.00 0.00 78 1015.4
20161203171729 55 73 2.0 3.0 0.00 0.00 0.00 78 1015.4
20161203170729 55 73 1.0 3.0 0.00 0.00 0.00 77 1015.5
20161203165729 56 73 2.0 3.0 0.00 0.00 0.00 77 1015.4
20161203164730 56 74 1.0 3.0 0.00 0.00 0.00 77 1015.4
20161203162229 56 92 2.0 5.0 0.00 0.00 0.00 77 1015.3
20161203161231 56 89 4.0 6.0 0.00 0.00 0.00 77 1015.3
20161203155230 56 61 2.0 6.0 0.00 0.00 0.00 77 1015.2
20161203153230 56 81 2.0 5.0 0.00 0.00 0.00 76 1014.9
20161203152729 56 81 3.0 6.0 0.00 0.00 0.00 76 1014.9
20161203152229 56 98 1.0 8.0 0.00 0.00 0.00 76 1014.9
20161203150230 56 61 4.0 8.0 0.00 0.00 0.00 76 1014.9
20161203145230 56 46 4.0 8.0 0.00 0.00 0.00 76 1014.8
20161203144729 56 96 5.0 8.0 0.00 0.00 0.00 75 1014.8
20161203143229 56 60 5.0 8.0 0.00 0.00 0.00 75 1014.8
20161203142230 57 47 5.0 8.0 0.00 0.00 0.00 74 1014.7
20161203141729 57 50 4.0 8.0 0.00 0.00 0.00 75 1014.7
20161203140729 57 77 5.0 8.0 0.00 0.00 0.00 74 1014.7
20161203135729 57 80 6.0 12.0 0.00 0.00 0.00 74 1014.7
20161203135229 57 101 6.0 9.0 0.00 0.00 0.00 74 1014.7
20161203134230 57 74 7.0 12.0 0.00 0.00 0.00 74 1014.8
20161203132229 56 47 5.0 13.0 0.00 0.00 0.00 73 1015.0
20161203131229 57 89 6.0 12.0 0.00 0.00 0.00 73 1015.0
20161203130729 57 73 5.0 10.0 0.00 0.00 0.00 73 1015.0
20161203130230 56 70 2.0 7.0 0.00 0.00 0.00 73 1015.0
20161203124230 56 68 7.0 12.0 0.00 0.00 0.00 73 1015.1
20161203123729 56 83 5.0 10.0 0.00 0.00 0.00 73 1015.1
20161203123229 56 69 5.0 9.0 0.00 0.00 0.00 73 1015.2
20161203121229 56 70 5.0 10.0 0.00 0.00 0.00 72 1015.3
20161203120729 56 65 6.0 12.0 0.00 0.00 0.00 72 1015.4
20161203115229 56 112 4.0 12.0 0.00 0.00 0.00 72 1015.6
20161203114237 56 12 5.0 8.0 0.00 0.00 0.00 72 1015.6
20161203112731 55 25 6.0 9.0 0.00 0.00 0.00 72 1015.8
20161203112233 55 61 3.0 7.0 0.00 0.00 0.00 72 1016.0
20161203111729 55 38 3.0 7.0 0.00 0.00 0.00 72 1016.0
20161203110729 55 15 5.0 7.0 0.00 0.00 0.00 73 1016.1
20161203103730 54 358 4.0 9.0 0.00 0.00 0.00 72 1016.4
20161203100729 53 315 3.0 8.0 0.00 0.00 0.00 70 1016.5
20161203100229 53 335 3.0 6.0 0.00 0.00 0.00 70 1016.6
20161203095729 53 319 4.0 6.0 0.00 0.00 0.00 70 1016.6
20161203094729 52 317 5.0 8.0 0.00 0.00 0.00 70 1016.4
20161203092729 52 308 6.0 9.0 0.00 0.00 0.00 69 1016.2
20161203092229 52 300 5.0 8.0 0.00 0.00 0.00 69 1016.0
20161203090729 52 304 5.0 8.0 0.00 0.00 0.00 69 1015.8
20161203090229 52 326 3.0 8.0 0.00 0.00 0.00 69 1015.8
20161203084730 51 305 7.0 12.0 0.00 0.00 0.00 68 1015.8
20161203083728 51 310 7.0 12.0 0.00 0.00 0.00 68 1015.7
20161203083229 50 310 6.0 12.0 0.00 0.00 0.00 68 1015.8
20161203082729 50 310 5.0 10.0 0.00 0.00 0.00 68 1015.8
20161203082228 50 303 7.0 12.0 0.00 0.00 0.00 68 1015.8
20161203073729 48 311 7.0 9.0 0.00 0.00 0.00 69 1015.5
20161203073229 48 305 6.0 8.0 0.00 0.00 0.00 70 1015.5
20161203072729 48 317 6.0 10.0 0.00 0.00 0.00 70 1015.4
20161203072229 48 311 5.0 8.0 0.00 0.00 0.00 69 1015.4
20161203071729 48 324 5.0 9.0 0.00 0.00 0.00 69 1015.4
20161203071229 48 302 5.0 8.0 0.00 0.00 0.00 69 1015.3
20161203065729 48 308 6.0 9.0 0.00 0.00 0.00 68 1015.1
20161203065228 48 322 5.0 8.0 0.00 0.00 0.00 68 1015.1
20161203064729 49 317 6.0 10.0 0.00 0.00 0.00 68 1015.0
20161203063728 49 314 6.0 9.0 0.00 0.00 0.00 68 1014.9
20161203062228 49 314 5.0 10.0 0.00 0.00 0.00 67 1014.9
20161203060729 48 317 5.0 10.0 0.00 0.00 0.00 64 1014.8
20161203054229 47 304 4.0 7.0 0.00 0.00 0.00 61 1014.6
20161203051729 47 315 7.0 12.0 0.00 0.00 0.00 63 1014.4
20161203050228 47 312 8.0 12.0 0.00 0.00 0.00 63 1014.4
20161203045230 47 309 7.0 12.0 0.00 0.00 0.00 64 1014.4
20161203044229 47 305 7.0 12.0 0.00 0.00 0.00 65 1014.4
20161203043229 47 319 7.0 10.0 0.00 0.00 0.00 64 1014.3
20161203042729 47 339 6.0 10.0 0.00 0.00 0.00 65 1014.3
20161203041728 48 318 7.0 12.0 0.00 0.00 0.00 66 1014.3
20161203040229 47 309 7.0 12.0 0.00 0.00 0.00 70 1014.2
20161203035729 47 311 7.0 12.0 0.00 0.00 0.00 71 1014.2
20161203035228 47 306 7.0 12.0 0.00 0.00 0.00 70 1014.2
20161203033728 48 352 3.0 8.0 0.00 0.00 0.00 70 1014.2
20161203033229 48 344 2.0 5.0 0.00 0.00 0.00 71 1014.0
20161203032729 47 344 3.0 6.0 0.00 0.00 0.00 71 1014.0
20161203031729 47 348 6.0 9.0 0.00 0.00 0.00 72 1013.8
20161203030228 47 346 4.0 7.0 0.00 0.00 0.00 74 1013.8
20161203024228 47 324 1.0 2.0 0.00 0.00 0.00 75 1013.8
20161203022230 47 324 1.0 5.0 0.00 0.00 0.00 77 1014.1
20161203021728 46 324 0.0 2.0 0.00 0.00 0.00 77 1014.1
20161203021228 46 324 0.0 0.0 0.00 0.00 0.00 77 1014.1
20161203020229 47 324 0.0 0.0 0.00 0.00 0.00 76 1014.1
20161203014728 47 324 0.0 0.0 0.00 0.00 0.00 76 1014.1
20161203014229 47 324 0.0 2.0 0.00 0.00 0.00 77 1014.1
20161203013728 47 324 0.0 0.0 0.00 0.00 0.00 76 1014.1
20161203011729 48 324 0.0 0.0 0.00 0.00 0.00 76 1014.1
20161203010229 48 324 0.0 2.0 0.00 0.00 0.00 75 1014.2
20161203005729 49 324 0.0 0.0 0.00 0.00 0.00 75 1014.2
20161203005229 49 324 0.0 0.0 0.00 0.00 0.00 75 1014.2
20161203004728 49 324 0.0 3.0 0.00 0.00 0.00 75 1014.2
20161203003729 49 324 0.0 0.0 0.00 0.00 0.00 74 1014.2
20161202234729 50 322 0.0 3.0 0.00 0.00 0.00 74 1014.5
20161202232229 51 323 1.0 5.0 0.00 0.00 0.00 74 1014.6
20161202231228 51 322 1.0 3.0 0.00 0.00 0.00 73 1014.6
20161202230729 51 322 1.0 2.0 0.00 0.00 0.00 73 1014.6
20161202230228 51 322 0.0 0.0 0.00 0.00 0.00 73 1014.6
20161202225728 52 322 0.0 0.0 0.00 0.00 0.00 73 1014.5
20161202223228 52 322 3.0 5.0 0.00 0.00 0.00 73 1014.5
20161202222728 52 322 1.0 3.0 0.00 0.00 0.00 73 1014.5
20161202221229 52 322 5.0 9.0 0.00 0.00 0.00 73 1014.5
20161202220229 53 313 3.0 6.0 0.00 0.00 0.00 73 1014.5
20161202215229 53 314 1.0 3.0 0.00 0.00 0.00 73 1014.5
20161202214729 53 314 2.0 5.0 0.00 0.00 0.00 73 1014.5
20161202214229 53 314 3.0 6.0 0.00 0.00 0.00 73 1014.5
20161202213729 53 314 2.0 3.0 0.00 0.00 0.00 72 1014.5
20161202213228 53 314 2.0 3.0 0.00 0.00 0.00 72 1014.5
20161202211229 53 314 3.0 5.0 0.00 0.00 0.00 73 1014.6
20161202210228 53 313 3.0 3.0 0.00 0.00 0.00 73 1014.6
20161202205729 53 313 2.0 3.0 0.00 0.00 0.00 73 1014.6
20161202205228 53 313 1.0 3.0 0.00 0.00 0.00 73 1014.6
20161202204229 53 306 2.0 5.0 0.00 0.00 0.00 73 1014.6
20161202203728 53 306 3.0 6.0 0.00 0.00 0.00 73 1014.7
20161202202729 53 295 3.0 8.0 0.00 0.00 0.00 73 1014.7
20161202202229 53 317 2.0 6.0 0.00 0.00 0.00 72 1014.7
20161202201228 53 320 3.0 7.0 0.00 0.00 0.00 72 1014.8
20161202195728 53 337 5.0 8.0 0.00 0.00 0.00 73 1014.9
20161202193730 53 303 3.0 5.0 0.00 0.00 0.00 73 1015.0
20161202192229 53 304 0.0 1.0 0.00 0.00 0.00 74 1015.0
20161202190728 53 303 0.0 0.0 0.00 0.00 0.00 73 1015.0
20161202185229 54 304 2.0 8.0 0.00 0.00 0.00 74 1015.0
20161202184729 53 311 3.0 8.0 0.00 0.00 0.00 75 1015.0
20161202182228 53 313 2.0 3.0 0.00 0.00 0.00 75 1015.0
20161202180728 53 313 3.0 5.0 0.00 0.00 0.00 76 1015.0
20161202180228 53 312 3.0 6.0 0.00 0.00 0.00 77 1015.0
20161202175729 53 211 1.0 3.0 0.00 0.00 0.00 77 1015.0
20161202175229 53 161 0.0 1.0 0.00 0.00 0.00 77 1015.0
20161202174228 53 161 0.0 3.0 0.00 0.00 0.00 78 1014.8